Home   Weather   Orange   Past weeks
Flag for USA

Past Weather in Orange, California, USA — Yesterday and Last 2 Weeks

Now
62 °F

Overcast.


Feels Like: 62 °F
Forecast: 62 / 53 °F
Wind: 3 mph from Northeast

Location: John Wayne Airport-Orange County Airport

Current Time: Apr 7, 2020 at 10:56:19 am

Latest Report: Apr 7, 2020 at 9:53 am


Visibility: 10 mi

Pressure: 30.06 "Hg

Humidity: 62%

Dew Point: 49 °F

Location of OrangeLocation

Past Weather in Orange — Graph

°F

Orange Temperature Yesterday

Maximum temperature yesterday: 63 °F (at 1:53 pm)
Minimum temperature yesterday: 58 °F (at 12:06 am)
Average temperature yesterday: 60 °F

High & Low Weather Summary for the Past Weeks

 TemperatureHumidityPressure
High75 °F (Mar 31, 1:53 pm)84% (Apr 5, 11:33 pm)30.25 "Hg (Apr 5, 11:33 pm)
Low50 °F (Mar 27, 6:53 am)28% (Mar 27, 1:53 pm)29.83 "Hg (Apr 1, 4:53 am)
Average61 °F63%30.01 "Hg
* Reported Mar 23 8:53 am — Apr 7 8:53 am, Orange. Weather by CustomWeather, © 2020

Note: Actual official high and low records may vary slightly from our data, if they occured in-between our weather recording intervals... More about our weather records

Orange Weather History for the Previous 24 Hours

Scroll right to see more
 ConditionsComfort  
Time TempWeatherWind HumidityBarometerVisibility
8:53 am
Tue, Apr 7
60 °FPartly sunny.5 mph75%30.05 "Hg10 mi
7:53 am58 °FPartly sunny.3 mph78%30.05 "Hg10 mi
6:53 am58 °FLight rain. Partly sunny.No wind75%30.03 "Hg10 mi
5:53 am58 °FOvercast.No wind78%30.02 "Hg10 mi
4:53 am57 °FOvercast.No wind81%30.01 "Hg10 mi
3:53 am57 °FLight rain. Mostly cloudy.3 mph81%30.01 "Hg10 mi
2:53 am58 °FOvercast.3 mph78%30.02 "Hg10 mi
1:53 am57 °FMostly cloudy.No wind78%30.03 "Hg10 mi
12:53 am58 °FLight rain. Overcast.No wind81%30.04 "Hg8 mi
11:53 pm
Mon, Apr 6
58 °FOvercast.5 mph78%30.03 "Hg10 mi
11:37 pm58 °FMostly cloudy.3 mph81%30.03 "Hg10 mi
10:53 pm58 °FLight rain. Mostly cloudy.6 mph78%30.02 "Hg9 mi
9:53 pm59 °FLight rain. Overcast.6 mph78%30.01 "Hg9 mi
9:36 pm59 °FLight rain. Mostly cloudy.No wind75%30.01 "Hg10 mi
9:13 pm59 °FLight rain. Mostly cloudy.No wind75%30.01 "Hg6 mi
8:53 pm59 °FLight rain. Mostly cloudy.No wind78%29.99 "Hg5 mi
8:18 pm60 °FLight rain. Mostly cloudy.No wind75%29.99 "Hg7 mi
7:53 pm60 °FLight rain. Mostly cloudy.No wind75%29.97 "Hg7 mi
6:53 pm61 °FLight rain. Broken clouds.5 mph72%29.96 "Hg8 mi
5:53 pm62 °FLight rain. Cloudy.6 mph67%29.95 "Hg10 mi
4:53 pm63 °FCloudy.6 mph65%29.94 "Hg10 mi
3:53 pm63 °FLight rain. Cloudy.6 mph68%29.94 "Hg10 mi
2:53 pm63 °FCloudy.6 mph68%29.94 "Hg10 mi
1:53 pm63 °FCloudy.8 mph68%29.94 "Hg10 mi
1:10 pm62 °FLight rain. Cloudy.10 mph80%29.94 "Hg3 mi
12:53 pm62 °FMore clouds than sun.10 mph75%29.93 "Hg10 mi
12:10 pm61 °FMore clouds than sun.10 mph81%29.94 "Hg10 mi
12:00 pm60 °FLight rain. Mostly cloudy.9 mph80%29.94 "Hg10 mi
11:32 am60 °FRain. Mostly cloudy.6 mph83%29.94 "Hg1 mi
10:53 am60 °FLight rain. Low clouds.10 mph80%29.92 "Hg7 mi
10:38 am60 °FLight rain. More clouds than sun.9 mph80%29.92 "Hg3 mi
10:23 am59 °FLight rain. Mostly cloudy.13 mph84%29.92 "Hg3 mi
10:01 am59 °FRain. More clouds than sun.13 mph84%29.91 "Hg2 mi
Weather by CustomWeather, © 2020

See weather overview

Advertising